Date,TemperatureHighF,TemperatureAvgF,TemperatureLowF,DewpointHighF,DewpointAvgF,DewpointLowF,HumidityHigh,HumidityAvg,HumidityLow,PressureMaxIn,PressureMinIn,WindSpeedMaxMPH,WindSpeedAvgMPH,GustSpeedMaxMPH,PrecipitationSumIn
2013-3-1,61.1,53.6,45.8,37.6,35.4,32.2,70,51,38,30.02,29.80,13,7,17,0.00
2013-3-2,58.3,55.4,50.9,44.1,37.8,31.9,64,52,42,30.02,29.92,12,5,18,0.00
2013-3-3,58.9,54.8,51.7,51.5,45.5,38.8,87,71,52,29.96,29.76,7,3,9,0.00
2013-3-4,65.9,57.7,51.9,53.1,48.1,37.3,90,73,35,29.75,29.35,11,4,19,0.07
2013-3-5,63.1,56.5,53.9,56.2,52.2,50.2,93,86,69,29.48,29.36,5,2,7,0.43
2013-3-6,66.0,58.4,54.6,59.4,54.7,51.4,96,88,71,29.81,29.45,9,3,14,0.75
2013-3-7,61.1,59.4,55.6,59.3,57.0,52.8,95,92,85,29.86,29.77,14,5,23,1.09
2013-3-8,68.6,61.1,53.2,57.4,53.6,50.3,90,77,58,29.91,29.83,11,5,18,0.00
2013-3-9,61.8,58.9,55.5,57.4,54.7,41.8,91,86,58,29.89,29.83,10,4,10,0.09
2013-3-10,63.5,56.4,51.1,53.6,47.9,40.0,84,73,51,29.92,29.83,8,4,12,0.02
2013-3-11,63.6,58.1,54.2,52.8,46.1,42.5,77,65,50,29.93,29.85,14,7,18,0.02
2013-3-12,57.6,54.8,52.7,53.6,49.5,42.9,95,83,58,29.89,29.59,13,5,19,0.34
2013-3-13,58.0,54.9,51.5,48.5,33.0,25.0,78,45,29,29.93,29.60,15,9,19,0.00
2013-3-14,62.7,55.0,48.5,29.6,23.9,16.9,42,30,20,30.05,29.91,12,8,18,0.00
2013-3-15,59.1,54.4,47.3,46.1,35.8,24.7,70,51,30,30.09,30.00,9,4,14,0.00
2013-3-16,58.3,53.0,49.9,47.7,42.1,35.3,88,68,42,30.03,29.83,5,2,6,0.05
2013-3-17,61.9,56.2,49.5,58.0,50.8,42.2,90,82,63,29.83,29.59,8,2,12,0.09
2013-3-18,68.9,61.4,56.7,55.1,45.6,29.2,90,59,31,29.77,29.64,9,5,13,0.01
2013-3-19,63.6,57.7,53.3,56.5,47.5,31.3,93,71,36,29.73,29.61,9,2,10,0.61
2013-3-20,67.7,60.6,54.4,55.7,44.2,36.5,93,58,34,30.08,29.64,13,6,20,0.00
2013-3-21,64.1,56.6,50.0,50.6,45.8,41.4,76,67,52,30.08,29.93,8,4,13,0.00
2013-3-22,65.4,57.1,50.8,55.6,47.5,41.7,82,71,48,29.93,29.80,10,4,13,0.00
2013-3-23,61.9,54.4,49.9,52.2,46.8,41.1,91,76,60,29.80,29.63,9,3,12,0.33
2013-3-24,63.1,57.0,51.2,53.4,46.1,40.7,91,67,55,29.91,29.65,14,8,17,0.02
2013-3-25,65.8,59.4,52.8,53.0,46.7,41.0,74,63,51,29.99,29.90,13,8,20,0.00
2013-3-26,67.1,60.8,55.5,55.6,51.5,45.7,81,72,59,29.89,29.76,13,5,18,0.00
2013-3-27,67.6,61.0,54.9,56.8,53.5,51.1,88,77,61,29.78,29.68,10,4,13,0.01
2013-3-28,69.3,63.0,58.4,56.6,51.7,48.0,82,67,53,29.99,29.71,12,6,21,0.00
2013-3-29,68.6,62.8,58.7,56.0,51.8,48.6,86,68,54,30.03,29.94,12,5,17,0.00
2013-3-30,73.9,65.8,58.5,59.6,52.4,44.3,94,66,38,30.02,29.90,14,7,21,0.22
2013-3-31,65.2,62.5,59.7,60.0,53.5,44.7,91,73,48,29.92,29.71,10,3,15,0.02